FW1908 Weather Reports


Display with metric or nautical units.
time (UTC)temp
F
wind
direction
speed
MPH
gust
MPH
rain 1hr
in
rain 24hr
in
rain mn
in
humidity
%
barometer
mb
20260831134728 76 322 2.0 4.0 0.00 0.00 0.00 94 1021.5
20260831134007 75 321 2.0 4.0 0.00 0.00 0.00 94 1021.5
20260831133506 75 321 2.0 5.0 0.00 0.00 0.00 95 1021.5
20260831133007 75 241 2.0 5.0 0.00 0.00 0.00 95 1021.4
20260831132504 75 310 2.0 4.0 0.00 0.00 0.00 95 1021.4
20260831132234 74 264 2.0 5.0 0.00 0.00 0.00 95 1021.3
20260831131459 74 223 2.0 5.0 0.00 0.00 0.00 95 1021.4
20260831130959 74 186 1.0 3.0 0.00 0.00 0.00 95 1021.4
20260831130452 73 138 1.0 3.0 0.00 0.00 0.00 95 1021.4
20260831125946 73 139 1.0 3.0 0.00 0.00 0.00 95 1021.4
20260831125700 73 138 0.0 2.0 0.00 0.00 0.00 95 1021.4
20260831125155 72 138 0.0 3.0 0.00 0.00 0.00 95 1021.4
20260831124427 72 138 0.0 3.0 0.00 0.00 0.00 95 1021.4
20260831123927 71 92 0.0 1.0 0.00 0.00 0.00 95 1021.4
20260831123424 71 92 0.0 1.0 0.00 0.00 0.00 95 1021.4
20260831123144 70 92 0.0 1.0 0.00 0.00 0.00 95 1021.4
20260831122425 70 92 0.0 1.0 0.00 0.00 0.00 94 1021.5
20260831121922 70 92 0.0 1.0 0.00 0.00 0.00 95 1021.4
20260831121421 69 92 0.0 1.0 0.00 0.00 0.00 94 1021.5
20260831120916 69 92 0.0 0.0 0.00 0.00 0.00 94 1021.5
20260831120417 69 92 0.0 0.0 0.00 0.00 0.00 94 1021.5
20260831115916 69 92 0.0 0.0 0.00 0.00 0.00 94 1021.4
20260831115414 69 92 0.0 0.0 0.00 0.00 0.00 94 1021.4
20260831114913 69 92 0.0 0.0 0.00 0.00 0.00 94 1021.4
20260831114410 69 92 0.0 0.0 0.00 0.00 0.00 94 1021.4
20260831113910 69 92 0.0 0.0 0.00 0.00 0.00 93 1021.4
20260831113406 69 92 0.0 0.0 0.00 0.00 0.00 93 1021.4
20260831113125 69 92 0.0 0.0 0.00 0.00 0.00 94 1021.4
20260831112407 69 92 0.0 0.0 0.00 0.00 0.00 94 1021.3
20260831111905 69 92 0.0 0.0 0.00 0.00 0.00 94 1021.2
20260831111402 69 92 0.0 0.0 0.00 0.00 0.00 93 1021.1
20260831110901 69 92 0.0 0.0 0.00 0.00 0.00 93 1021.2
20260831110621 69 92 0.0 0.0 0.00 0.00 0.00 93 1021.2
20260831105857 69 92 0.0 0.0 0.00 0.00 0.00 93 1021.1
20260831105352 69 92 0.0 0.0 0.00 0.00 0.00 93 1021.1
20260831104845 69 92 0.0 0.0 0.00 0.00 0.00 93 1021.1
20260831104604 69 92 0.0 0.0 0.00 0.00 0.00 93 1021.2
20260831103328 69 92 0.0 0.0 0.00 0.00 0.00 93 1021.0
20260831102821 69 92 0.0 0.0 0.00 0.00 0.00 93 1021.0
20260831102316 69 92 0.0 0.0 0.00 0.00 0.00 93 1021.0
20260831101810 69 92 0.0 0.0 0.00 0.00 0.00 93 1021.0
20260831101305 69 92 0.0 0.0 0.00 0.00 0.00 93 1021.0
20260831100757 69 92 0.0 0.0 0.00 0.00 0.00 93 1020.9
20260831100252 69 92 0.0 0.0 0.00 0.00 0.00 93 1020.9
20260831100009 69 92 0.0 0.0 0.00 0.00 0.00 93 1020.9
20260831095240 69 92 0.0 0.0 0.00 0.00 0.00 93 1020.9
20260831094734 69 92 0.0 0.0 0.00 0.00 0.00 93 1020.8
20260831094227 69 92 0.0 0.0 0.00 0.00 0.00 93 1020.9
20260831093722 69 92 0.0 0.0 0.00 0.00 0.00 93 1020.8
20260831093215 69 92 0.0 0.0 0.00 0.00 0.00 93 1020.8
20260831092710 69 92 0.0 0.0 0.00 0.00 0.00 93 1020.8
20260831092205 69 92 0.0 0.0 0.00 0.00 0.00 93 1020.8
20260831091658 69 92 0.0 0.0 0.00 0.00 0.00 93 1020.7
20260831091151 70 92 0.0 0.0 0.00 0.00 0.00 93 1020.7
20260831090646 70 92 0.0 0.0 0.00 0.00 0.00 93 1020.8
20260831090141 70 92 0.0 0.0 0.00 0.00 0.00 93 1020.8
20260831085638 70 92 0.0 0.0 0.00 0.00 0.00 93 1020.8
20260831085123 70 92 0.0 0.0 0.00 0.00 0.00 93 1020.7
20260831084618 70 92 0.0 0.0 0.00 0.00 0.00 93 1020.7
20260831083605 70 92 0.0 0.0 0.00 0.00 0.00 93 1020.6
20260831083100 70 92 0.0 0.0 0.00 0.00 0.00 93 1020.6
20260831082553 70 92 0.0 0.0 0.00 0.00 0.00 93 1020.6
20260831081542 70 92 0.0 0.0 0.00 0.00 0.00 93 1020.6
20260831081259 70 92 0.0 0.0 0.00 0.00 0.00 92 1020.6
20260831080529 70 92 0.0 0.0 0.00 0.00 0.00 92 1020.6
20260831080024 70 92 0.0 0.0 0.00 0.00 0.00 92 1020.6
20260831075517 70 92 0.0 0.0 0.00 0.00 0.00 92 1020.6
20260831075227 71 92 0.0 0.0 0.00 0.00 0.00 92 1020.6
20260831074507 71 92 0.0 0.0 0.00 0.00 0.00 92 1020.6
20260831074000 71 92 0.0 0.0 0.00 0.00 0.00 92 1020.6
20260831073455 71 92 0.0 0.0 0.00 0.00 0.00 92 1020.6
20260831072948 71 92 0.0 0.0 0.00 0.00 0.00 92 1020.6
20260831072442 71 92 0.0 0.0 0.00 0.00 0.00 92 1020.6
20260831071936 71 92 0.0 0.0 0.00 0.00 0.00 92 1020.6
20260831071430 71 92 0.0 0.0 0.00 0.00 0.00 92 1020.6
20260831070924 71 92 0.0 0.0 0.00 0.00 0.00 92 1020.6
20260831070418 71 92 0.0 0.0 0.00 0.00 0.00 92 1020.7
20260831065912 71 92 0.0 0.0 0.00 0.00 0.00 92 1020.7
20260831065624 71 92 0.0 0.0 0.00 0.00 0.00 92 1020.7
20260831065126 71 92 0.0 0.0 0.00 0.00 0.00 92 1020.7
20260831064353 71 92 0.0 0.0 0.00 0.00 0.00 92 1020.8
20260831063848 71 92 0.0 0.0 0.00 0.00 0.00 92 1020.8
20260831063341 71 92 0.0 0.0 0.00 0.00 0.00 92 1020.8
20260831062836 71 92 0.0 0.0 0.00 0.00 0.00 92 1020.8
20260831062329 71 92 0.0 0.0 0.00 0.00 0.00 92 1020.9
20260831061829 71 92 0.0 0.0 0.00 0.00 0.00 92 1020.9
20260831061331 71 92 0.0 0.0 0.00 0.00 0.00 92 1021.0
20260831061052 71 92 0.0 0.0 0.00 0.00 0.00 91 1021.0
20260831060330 71 92 0.0 0.0 0.00 0.00 0.00 91 1021.0
20260831055830 72 92 0.0 0.0 0.00 0.00 0.00 91 1021.0
20260831055328 72 92 0.0 0.0 0.00 0.00 0.00 91 1021.0
20260831055046 72 92 0.0 0.0 0.00 0.00 0.00 91 1021.0
20260831054546 72 92 0.0 0.0 0.00 0.00 0.00 91 1021.0
20260831053825 72 92 0.0 0.0 0.00 0.00 0.00 91 1020.9
20260831053323 72 92 0.0 0.0 0.00 0.00 0.00 91 1021.0
20260831052824 72 92 0.0 0.0 0.00 0.00 0.00 91 1020.9
20260831052324 72 92 0.0 0.0 0.00 0.00 0.00 91 1020.8
20260831051824 72 92 0.0 0.0 0.00 0.00 0.00 91 1020.9
20260831051323 72 92 0.0 0.0 0.00 0.00 0.00 91 1020.9
20260831050824 72 92 0.0 0.0 0.00 0.00 0.00 90 1020.9
20260831050546 72 92 0.0 0.0 0.00 0.00 0.00 90 1021.0
20260831045820 72 92 0.0 0.0 0.00 0.00 0.00 90 1021.0
20260831045319 73 92 0.0 0.0 0.00 0.00 0.00 90 1021.0
20260831044818 73 92 0.0 0.0 0.00 0.00 0.00 90 1021.0
20260831044318 73 92 0.0 0.0 0.00 0.00 0.00 90 1021.0
20260831043818 73 92 0.0 0.0 0.00 0.00 0.00 90 1021.0
20260831043316 73 92 0.0 0.0 0.00 0.00 0.00 90 1021.1
20260831042814 73 92 0.0 0.0 0.00 0.00 0.00 89 1021.2
20260831042314 73 92 0.0 0.0 0.00 0.00 0.00 89 1021.2
20260831041814 73 92 0.0 0.0 0.00 0.00 0.00 89 1021.2
20260831040813 73 92 0.0 0.0 0.00 0.00 0.00 89 1021.2
20260831040311 73 92 0.0 0.0 0.00 0.00 0.00 89 1021.3
20260831035811 74 92 0.0 0.0 0.00 0.00 0.00 89 1021.3
20260831035307 74 92 0.0 0.0 0.00 0.00 0.00 89 1021.3
20260831034759 74 92 0.0 0.0 0.00 0.00 0.00 88 1021.3
20260831034254 74 92 0.0 0.0 0.00 0.00 0.00 88 1021.3
20260831033748 74 92 0.0 0.0 0.00 0.00 0.00 88 1021.4
20260831033241 74 92 0.0 0.0 0.00 0.00 0.00 88 1021.4
20260831032736 74 92 0.0 0.0 0.00 0.00 0.00 88 1021.3
20260831032229 74 92 0.0 0.0 0.00 0.00 0.00 88 1021.4
20260831031727 74 92 0.0 0.0 0.00 0.00 0.00 88 1021.4
20260831031228 74 92 0.0 0.0 0.00 0.00 0.00 87 1021.3
20260831030957 74 92 0.0 0.0 0.00 0.00 0.00 87 1021.2
20260831030225 74 92 0.0 0.0 0.00 0.00 0.00 87 1021.1
20260831025725 75 92 0.0 0.0 0.00 0.00 0.00 87 1021.2
20260831025222 75 92 0.0 0.0 0.00 0.00 0.00 87 1021.2
20260831024720 75 92 0.0 0.0 0.00 0.00 0.00 86 1021.2
20260831024220 75 92 0.0 0.0 0.00 0.00 0.00 86 1021.2
20260831023719 75 92 0.0 0.0 0.00 0.00 0.00 86 1021.2
20260831023220 75 92 0.0 0.0 0.00 0.00 0.00 86 1021.3
20260831022946 75 92 0.0 0.0 0.00 0.00 0.00 86 1021.3
20260831022218 76 92 0.0 0.0 0.00 0.00 0.00 86 1021.3
20260831021716 76 92 0.0 0.0 0.00 0.00 0.00 86 1021.3
20260831021215 76 92 0.0 0.0 0.00 0.00 0.00 85 1021.3
20260831020713 76 92 0.0 0.0 0.00 0.00 0.00 85 1021.3
20260831020213 76 92 0.0 0.0 0.00 0.00 0.00 85 1021.2
20260831015715 76 92 0.0 1.0 0.00 0.00 0.00 85 1021.1
20260831015208 76 92 0.0 1.0 0.00 0.00 0.00 85 1021.1
20260831014702 76 92 0.0 1.0 0.00 0.00 0.00 84 1021.2
20260831014200 76 92 0.0 0.0 0.00 0.00 0.00 84 1021.1
20260831013658 77 92 0.0 0.0 0.00 0.00 0.00 83 1021.2
20260831013156 77 92 0.0 0.0 0.00 0.00 0.00 83 1021.3
20260831012657 77 92 0.0 0.0 0.00 0.00 0.00 83 1021.2
20260831012153 77 92 0.0 0.0 0.00 0.00 0.00 83 1021.2
20260831011653 77 92 0.0 0.0 0.00 0.00 0.00 82 1021.1
20260831011153 78 92 0.0 1.0 0.00 0.00 0.00 82 1021.1
20260831010655 78 92 0.0 1.0 0.00 0.00 0.00 81 1021.1
20260831010154 78 92 0.0 0.0 0.00 0.00 0.00 81 1021.1
20260831005654 78 92 0.0 0.0 0.00 0.00 0.00 80 1021.0
20260831005151 78 92 0.0 0.0 0.00 0.00 0.00 80 1020.9
20260831004649 79 92 0.0 0.0 0.00 0.00 0.00 80 1020.8
20260831004151 79 92 0.0 0.0 0.00 0.00 0.00 79 1020.8
20260831003649 79 92 0.0 0.0 0.00 0.00 0.00 79 1020.7
20260831003151 79 92 0.0 0.0 0.00 0.00 0.00 79 1020.7
20260831002918 79 92 0.0 0.0 0.00 0.00 0.00 79 1020.7
20260831002151 80 92 0.0 0.0 0.00 0.00 0.00 78 1020.6
20260831001650 80 92 0.0 0.0 0.00 0.00 0.00 77 1020.6
20260831001151 80 92 0.0 0.0 0.00 0.00 0.00 77 1020.6
20260831000645 80 92 0.0 0.0 0.00 0.00 0.00 77 1020.5
20260831000145 81 92 0.0 1.0 0.00 0.00 0.00 76 1020.5
20260830235645 81 92 0.0 1.0 0.00 0.00 0.00 76 1020.5
20260830235145 81 92 0.0 2.0 0.00 0.00 0.00 75 1020.5
20260830234903 81 92 1.0 4.0 0.00 0.00 0.00 75 1020.5
20260830234145 82 92 1.0 4.0 0.00 0.00 0.00 75 1020.6
20260830233646 82 94 1.0 3.0 0.00 0.00 0.00 74 1020.6
20260830233146 82 94 1.0 3.0 0.00 0.00 0.00 74 1020.6
20260830232646 82 94 1.0 3.0 0.00 0.00 0.00 73 1020.6
20260830231859 83 94 1.0 3.0 0.00 0.00 0.00 73 1020.7
20260830231141 83 94 2.0 3.0 0.00 0.00 0.00 72 1020.6
20260830230641 83 91 2.0 3.0 0.00 0.00 0.00 72 1020.6
20260830225904 83 98 2.0 7.0 0.00 0.00 0.00 72 1020.6
20260830225140 83 102 2.0 7.0 0.00 0.00 0.00 71 1020.6
20260830224638 83 69 1.0 5.0 0.00 0.00 0.00 71 1020.5
20260830224139 83 69 2.0 6.0 0.00 0.00 0.00 71 1020.5
20260830223638 83 127 2.0 6.0 0.00 0.00 0.00 70 1020.5
20260830223138 84 90 3.0 6.0 0.00 0.00 0.00 71 1020.4
20260830222637 84 80 2.0 7.0 0.00 0.00 0.00 70 1020.4
20260830222131 84 65 2.0 7.0 0.00 0.00 0.00 70 1020.4
20260830221629 84 83 2.0 5.0 0.00 0.00 0.00 70 1020.4
20260830221353 84 99 2.0 5.0 0.00 0.00 0.00 69 1020.4
20260830220848 84 201 0.0 4.0 0.00 0.00 0.00 70 1020.3
20260830220125 84 65 1.0 3.0 0.00 0.00 0.00 69 1020.3
20260830215625 84 65 1.0 8.0 0.00 0.00 0.00 69 1020.4
20260830215125 84 77 1.0 8.0 0.00 0.00 0.00 69 1020.4
20260830214623 84 68 1.0 6.0 0.00 0.00 0.00 68 1020.5
20260830214121 85 67 1.0 6.0 0.00 0.00 0.00 69 1020.5
20260830213620 85 80 2.0 4.0 0.00 0.00 0.00 69 1020.4
20260830213120 85 81 2.0 8.0 0.00 0.00 0.00 68 1020.5
20260830212618 85 84 2.0 8.0 0.00 0.00 0.00 68 1020.5
20260830212118 85 63 1.0 3.0 0.00 0.00 0.00 68 1020.4
20260830211618 85 62 1.0 4.0 0.00 0.00 0.00 68 1020.5
20260830211116 85 125 2.0 8.0 0.00 0.00 0.00 67 1020.5
20260830210835 85 84 2.0 8.0 0.00 0.00 0.00 68 1020.6
20260830210112 85 136 2.0 6.0 0.00 0.00 0.00 67 1020.5
20260830205609 85 146 2.0 7.0 0.00 0.00 0.00 66 1020.6
20260830205109 86 86 2.0 7.0 0.00 0.00 0.00 67 1020.6
20260830204603 86 242 2.0 4.0 0.00 0.00 0.00 66 1020.5
20260830204057 86 110 1.0 4.0 0.00 0.00 0.00 67 1020.6
20260830203550 87 349 1.0 4.0 0.00 0.00 0.00 66 1020.6
20260830203045 87 345 2.0 7.0 0.00 0.00 0.00 66 1020.7
20260830202538 87 97 3.0 7.0 0.00 0.00 0.00 62 1020.7
20260830202255 88 118 3.0 7.0 0.00 0.00 0.00 64 1020.8
20260830201527 88 42 3.0 7.0 0.00 0.00 0.00 64 1020.8
20260830201243 88 70 2.0 8.0 0.00 0.00 0.00 65 1020.8
20260830200514 88 80 2.0 8.0 0.00 0.00 0.00 63 1021.0
20260830200009 88 96 2.0 6.0 0.00 0.00 0.00 65 1021.0
20260830195502 88 115 1.0 4.0 0.00 0.00 0.00 65 1021.1
20260830194957 87 196 1.0 6.0 0.00 0.00 0.00 66 1021.2
20260830194450 87 93 2.0 6.0 0.00 0.00 0.00 67 1021.3
20260830193945 87 76 2.0 6.0 0.00 0.00 0.00 69 1021.3
20260830193438 87 91 4.0 9.0 0.00 0.00 0.00 69 1021.4
20260830192933 86 63 4.0 9.0 0.00 0.00 0.00 69 1021.5
20260830192427 86 53 3.0 8.0 0.00 0.00 0.00 68 1021.6
20260830191920 86 105 3.0 8.0 0.00 0.00 0.00 69 1021.7
20260830191416 86 88 4.0 8.0 0.00 0.00 0.00 67 1021.8
20260830190908 86 126 2.0 9.0 0.00 0.00 0.00 70 1021.8
20260830190403 86 73 1.0 8.0 0.00 0.00 0.00 69 1021.9
20260830185857 85 119 2.0 6.0 0.00 0.00 0.00 69 1021.9
20260830185350 85 72 2.0 6.0 0.00 0.00 0.00 69 1022.0
20260830184845 85 103 4.0 9.0 0.00 0.00 0.00 70 1022.1
20260830184604 85 80 4.0 9.0 0.00 0.00 0.00 70 1022.2
20260830183832 85 103 1.0 6.0 0.00 0.00 0.00 72 1022.2
20260830183327 84 71 2.0 7.0 0.00 0.00 0.00 72 1022.3
20260830182821 84 69 3.0 7.0 0.00 0.00 0.00 72 1022.3
20260830182315 84 74 2.0 7.0 0.00 0.00 0.00 71 1022.4
20260830181808 84 160 2.0 5.0 0.00 0.00 0.00 71 1022.5
20260830181303 84 80 2.0 7.0 0.00 0.00 0.00 75 1022.6
20260830180757 84 97 2.0 7.0 0.00 0.00 0.00 74 1022.6
20260830180510 83 68 1.0 4.0 0.00 0.00 0.00 74 1022.7
20260830175746 83 136 2.0 8.0 0.00 0.00 0.00 73 1022.8
20260830174734 83 93 3.0 9.0 0.00 0.00 0.00 75 1023.1
20260830174227 83 67 4.0 9.0 0.00 0.00 0.00 76 1023.2
20260830173720 82 65 3.0 7.0 0.00 0.00 0.00 79 1023.1
20260830173215 82 244 2.0 7.0 0.00 0.00 0.00 79 1023.3
20260830172709 81 93 2.0 4.0 0.00 0.00 0.00 78 1023.3
20260830172434 81 106 2.0 4.0 0.00 0.00 0.00 77 1023.4
20260830171917 81 93 2.0 5.0 0.00 0.00 0.00 76 1023.5
20260830171150 82 140 2.0 8.0 0.00 0.00 0.00 77 1023.5
20260830170645 82 121 3.0 9.0 0.00 0.00 0.00 76 1023.5
20260830170140 82 84 3.0 9.0 0.00 0.00 0.00 75 1023.5
20260830165633 82 103 2.0 8.0 0.00 0.00 0.00 77 1023.5
20260830165127 81 231 3.0 8.0 0.00 0.00 0.00 79 1023.6
20260830164621 81 77 2.0 7.0 0.00 0.00 0.00 79 1023.7
20260830164114 81 101 3.0 8.0 0.00 0.00 0.00 78 1023.7
20260830163615 81 95 2.0 8.0 0.00 0.00 0.00 78 1023.7
20260830163115 80 120 2.0 7.0 0.00 0.00 0.00 80 1023.8
20260830162615 80 120 3.0 7.0 0.00 0.00 0.00 80 1023.8
20260830162336 80 89 3.0 7.0 0.00 0.00 0.00 82 1023.8
20260830161836 79 130 3.0 7.0 0.00 0.00 0.00 84 1023.7
20260830161111 79 93 2.0 7.0 0.00 0.00 0.00 86 1023.9
20260830160610 78 88 1.0 4.0 0.00 0.00 0.00 87 1023.9
20260830160107 77 85 0.0 2.0 0.00 0.00 0.00 86 1023.9
20260830155607 77 85 0.0 2.0 0.00 0.00 0.00 86 1024.0
20260830155108 77 85 0.0 2.0 0.00 0.00 0.00 86 1024.0
20260830154605 77 85 0.0 3.0 0.00 0.00 0.00 87 1024.0
20260830154327 77 85 0.0 3.0 0.00 0.00 0.00 88 1024.0
20260830153603 77 83 0.0 2.0 0.00 0.00 0.00 88 1024.0
20260830153103 76 83 0.0 2.0 0.00 0.00 0.00 87 1024.0
20260830152600 76 101 0.0 2.0 0.00 0.00 0.00 88 1023.9
20260830152324 76 96 0.0 3.0 0.00 0.00 0.00 87 1023.9
20260830151817 76 97 2.0 4.0 0.00 0.00 0.00 88 1023.9
20260830151057 76 98 2.0 5.0 0.00 0.00 0.00 89 1023.9
20260830150557 76 85 1.0 5.0 0.00 0.00 0.00 89 1023.9
20260830150050 76 98 1.0 4.0 0.00 0.00 0.00 89 1023.9
20260830145549 76 92 1.0 4.0 0.00 0.00 0.00 89 1023.8
20260830145049 76 95 1.0 4.0 0.00 0.00 0.00 89 1023.8
20260830144549 76 96 2.0 6.0 0.00 0.00 0.00 89 1023.8
20260830144049 76 100 3.0 8.0 0.00 0.00 0.00 89 1023.8
20260830143549 76 90 2.0 8.0 0.00 0.00 0.00 90 1023.8
20260830143050 76 94 2.0 7.0 0.00 0.00 0.00 90 1023.8
20260830142549 76 110 2.0 7.0 0.00 0.00 0.00 91 1023.8
20260830142049 75 86 2.0 7.0 0.00 0.00 0.00 92 1023.8
20260830141549 75 84 2.0 7.0 0.00 0.00 0.00 92 1023.9
20260830141048 75 74 2.0 7.0 0.00 0.00 0.00 92 1023.9
20260830140549 75 0 2.0 6.0 0.00 0.00 0.00 92 1023.8
20260830140047 75 92 1.0 6.0 0.00 0.00 0.00 92 1023.8
20260830135547 74 100 1.0 4.0 0.00 0.00 0.00 92 1023.9
20260830135045 74 90 1.0 3.0 0.00 0.00 0.00 92 1023.9